www.pogodaiklimat.ru

Погода и климат >> Архив погоды >> Мексика >> Tapachula City


ПОГОДА в Tapachula City

  • Прогноз погоды в Tapachula City
  • Монитор погоды в Tapachula City
  • Климат города

АРХИВ ПОГОДЫ в Tapachula City

Время (UTC), дата Ветер
(напр.,м/с)
 
Видим.   Явления Облачность Т
(С)
Тd
(С)
f
(%)
Тe
(С)
Тes
(С)
Комфортность P
(гПа)
Po
(гПа)
Тmin
(С)
Tmax
(С)
R
(мм)
R24
(мм)
S
(см)
12 17.04 В 2 20 км ясно +23.8 +20.4 81 +29 +29 душно 1013.2 999.7 +22.6 +34.9
15 17.04 СВ 1 30 км дым ясно +25.0 +24.3 96 +35 +47 очень
душно
1014.5 1001.0
18 17.04 З 2 35 км 1/1 1020 м
[Cu hum]
+33.6 +24.0 57 +45 +65 опасность
перегрева
1013.0 999.5 +22.6 +35.1
21 17.04 З 4 30 км 3/3 1020 м
[Cu hum]
+34.2 +25.5 61 +49 +55 опасность
перегрева
1010.1 996.8
00 18.04 ЮЗ 2 30 км 4/1 1000 м
[Cu hum Ci fib]
+29.7 +24.9 75 +42 +43 опасность
перегрева
1010.7 997.4 +22.6 +36.1
03 18.04 Ю 1 15 км 3/3 1500 м
[Sc]
+28.0 +24.6 82 +40 +40 очень
душно
1012.4 999.6
06 18.04 В 1 10 км ясно +27.0 +23.4 81 +37 +37 очень
душно
1014.8 1001.5 +22.6 +36.1
09 18.04 ЮВ 1 10 км ясно +25.3 +22.6 85 +33 +33 очень
душно
1013.4 1000.0
12 18.04 В 1 15 км ясно +24.2 +22.2 89 +31 +31 очень
душно
1012.2 998.7 +23.8 +36.1
15 18.04 З 4 40 км ясно +28.9 +22.4 68 +38 +45 очень
душно
1013.3 999.8
18 18.04 Ю 4 35 км 3/1 1000 м
[Cu med, cong Ac As]
+33.1 +22.1 53 +42 +54 опасность
перегрева
1012.5 999.1 +23.8 +35.5
21 18.04 СЗ 7 25 км 6/3 1000 м
[Cu med, cong Ac As]
+32.3 +25.1 66 +46 +48 опасность
перегрева
1010.9 997.5
00 19.04 СЗ 4 25 км 8/0
[Ac As]
+29.8 +24.7 74 +42 +42 опасность
перегрева
1010.9 997.6 +23.8 +36.4
03 19.04 З 2 20 км 8/0
[Ac As]
+27.5 +24.0 81 +38 +38 очень
душно
1012.6 999.3
06 19.04 В 1 25 км 6/0
[Ac As]
+27.2 +24.4 85 +38 +38 очень
душно
1012.9 999.6 +23.8 +36.4
12 19.04 СЗ 2 30 км 4/0
[Ac As]
+25.1 +23.0 88 +33 +33 очень
душно
1011.9 998.5 +36.4
15 19.04 С 4 30 км ясно +28.4 +23.8 76 +39 +46 очень
душно
1013.4 999.9
18 19.04 СЗ 6 30 км 4/0 1500 м
[Ac trans]
+33.8 +23.8 56 +45 +52 опасность
перегрева
1010.1 996.7 +24.0 +36.4
21 19.04 С 6 30 км 4/0 1500 м
[Ac trans]
+33.2 +24.6 61 +46 +50 опасность
перегрева
1010.5 997.2
00 20.04 СВ 3 30 км 6/3 1000 м
[Sc Ac As]
+30.0 +24.6 73 +43 +43 опасность
перегрева
1007.2 994.0 +24.0 +36.6
03 20.04 В 1 35 км ясно +28.0 +25.6 87 +41 +41 опасность
перегрева
1012.2 998.9
06 20.04 ЮВ 2 20 км ясно +27.3 +24.6 85 +39 +39 очень
душно
1013.0 999.7 +24.0 +36.5
09 20.04 штиль 0 50 км ?/? +26.2 +23.5 85 +36 +36 очень
душно
1011.8 998.4
12 20.04 СВ 1 20 км ясно +25.2 +21.4 79 +32 +32 очень
душно
1011.9 998.5 +25.2 +36.5
15 20.04 Ю 1 40 км ясно +29.8 +22.2 64 +39 +51 опасность
солнечного
удара
1012.9 999.4
18 20.04 ЮВ 1 30 км 3/3 1020 м
[Cu med, cong]
+33.9 +24.7 59 +47 +65 опасность
перегрева
1012.6 999.2 +25.2 +34.2
21 20.04 Ю 2 30 км 6/6 1020 м
[Cu med, cong]
+33.4 +24.6 60 +46 +51 опасность
перегрева
1011.1 997.8
00 21.04 Ю 2 25 км гроза без осадков 8/8 600 м
[Cb cap]
+29.1 +23.8 73 +40 +40 очень
душно
1008.6 995.4 +25.2 +34.5
03 21.04 СВ 1 10 км 1/0 1500 м
[Ac und]
+26.8 +23.5 82 +36 +36 очень
душно
1012.5 999.2
06 21.04 СВ 1 10 км ясно +26.2 +23.5 85 +36 +36 очень
душно
1012.8 999.5 +25.2 +34.5
09 21.04 СВ 1 10 км ясно +25.4 +22.9 86 +34 +34 очень
душно
1011.2 997.8
12 21.04 СВ 1 30 км дым 1/0
[Ac und]
+24.2 +21.1 83 +31 +31 очень
душно
1011.8 998.3 +24.2 +34.5
15 21.04 В 2 40 км ясно +29.3 +22.2 66 +38 +49 очень
душно
1012.7 999.2
18 21.04 С 6 35 км 3/3 1000 м
[Cu med, cong]
+32.2 +22.8 58 +42 +48 опасность
перегрева
1011.5 998.1 +24.2 +35.6
21 21.04 С 5 35 км 3/3 1000 м
[Cu med, cong]
+31.2 +25.5 72 +46 +50 опасность
перегрева
1009.1 995.8
00 22.04 С 4 35 км 3/0
[Ac As]
+29.8 +24.6 74 +42 +42 опасность
перегрева
1009.2 995.9 +24.2 +36.5
03 22.04 З 2 30 км 5/0
[Ac As]
+27.5 +24.9 86 +39 +39 очень
душно
1011.6 998.3
06 22.04 С 3 20 км 8/0
[Ac As]
+26.1 +25.6 97 +38 +38 очень
душно
1012.7 999.3 +24.2 +36.5
09 22.04 ЮВ 2 20 км 8/0
[Ac As]
+25.1 +24.7 98 +35 +35 очень
душно
1011.3 997.9
12 22.04 ЮВ 1 30 км 5/0
[Ac As]
+23.9 +23.6 98 +32 +32 очень
душно
1011.7 998.2 +23.0 +36.5
15 22.04 В 1 35 км 4/0
[Ac cast]
+26.1 +25.7 98 +38 +48 очень
душно
1013.3 999.8
18 22.04 ЮЗ 1 35 км 3/3 1000 м
[Cu med, cong]
+32.9 +19.5 45 +38 +57 опасность
солнечного
удара
1011.7 998.2 +23.0 +35.2
21 22.04 ЮЗ 3 35 км 4/4 1000 м
[Cu med, cong]
+35.2 +24.7 55 +48 +55 опасность
перегрева
1009.1 995.8
00 23.04 н/о +24.4 1009.9 996.7 0.1
03 23.04 З 1 30 км 4/4 1500 м
[Sc]
+26.6 +22.3 77 +35 +35 очень
душно
1011.6 998.4
06 23.04 СВ 2 10 км 4/4 1000 м
[Sc]
+26.4 +22.2 78 +34 +34 очень
душно
1011.8 998.5 +23.0 +37.1
12 23.04 В 2 20 км 4/4 1500 м
[Sc]
+21.5 -4 -4 1012.4 998.9 +23.6 +37.1
15 23.04 В 1 35 км 1/1 1020 м
[Cu hum]
+29.6 +24.5 74 +42 +53 опасность
перегрева
1014.1 1000.6
18 23.04 Ю 1 35 км 3/1 1020 м
[Cu hum Ac und]
+33.9 +26.0 63 +49 +69 опасность
перегрева
1012.6 999.2 +23.6 +34.5
21 23.04 ЮЗ 3 30 км дым 3/3 1020 м
[Cu med, cong]
+35.2 +26.4 60 +51 +59 опасность
перегрева
1009.7 996.4
00 24.04 З 2 30 км дым 1/1 1000 м
[Cu med, cong]
+31.2 +26.3 75 +47 +47 опасность
перегрева
1009.4 996.2 +23.6 +37.0
03 24.04 Ю 2 15 км ясно +28.0 +26.4 91 +43 +43 опасность
перегрева
1010.2 997.0
06 24.04 В 1 15 км ясно +26.5 +24.5 89 +37 +37 очень
душно
1012.3 999.0 +23.6 +37.0
09 24.04 СВ 1 15 км 3/0
[Ac und]
+25.0 +22.9 88 +33 +33 очень
душно
1013.2 999.8

 

Местоположение метеостанции Tapachula City (Мексика): широта 14.92 долгота -92.25 высота над уровнем моря 118 м.

В архиве по умолчанию представлена погода в Tapachula City за последнюю неделю. Архивные данные за месяц целиком и за предыдущие месяцы, начиная с января 2011 года, Вы можете получить, выбрав интересующий диапазон дат из раскрывающегося списка и нажав кнопку "Ввод!".


*Определитесь, кто Вы:
робот инопланетянин человек

Внимание! Время в таблицах - всемирное. Для получения местного времени необходимо прибавить поправку, которая в Tapachula City равна -6 ч.

Смотрите также архив погоды в соседних городах и на ближайших метеорологических станциях:

Погода в Huehuetenango (Гватемала) (96 км)
Погода в Comitan (Мексика) (148 км)
Погода в San Jose (Гватемала) (191 км)
Погода в Guatemala (Гватемала) (191 км)
Погода в Sn. Cristobal Las Casas (Мексика) (208 км)
Погода в Tuxtla Gutierrez (Мексика) (224 км)
Погода в Arriaga (Мексика) (229 км)
Погода в Nueva Ocotepeque (Гондурас) (335 км)
Погода в Flores (Гватемала) (337 км)
Погода в Salina Cruz (Мексика) (343 км)

Пояснения к столбцам:

Ветер - указаны скорость ветра в м/с - средняя за 10 мин, порывы в срок и между сроками (в фигурных скобках) и направление, откуда дует ветер: С - северный, СВ - северо-восточный, В - восточный, ЮВ - юго-восточный, Ю - южный, ЮЗ - юго-западный, З - западный, СЗ - северо-западный.
Видимость - горизонтальная дальность видимости в метрах или километрах. При видимости от 1 до 10 км при отсутствии осадков обычно наблюдается дымка, при ухудшении видимости до 1 км и менее - туман. В сухую погоду видимость может ухудшаться дымом, пылью или мглою.
Явления - указаны атмосферные явления, наблюдавшиеся в срок или в последний час перед сроком; фигурными скобками обозначены явления, наблюдавшиеся между сроками (за 1-3 часа до срока); квадратными скобками обозначены град или гололедные отложения с указанием их диаметра в мм.
Облачность - указаны через наклонную черту общая и нижняя облачность в баллах и высота нижней границы облаков в метрах; квадратными скобками обозначены формы облаков: Ci - перистые, Cs - перисто-слоистые, Cc - перисто-кучевые, Ac - высококучевые, As - высокослоистые, Sc - слоисто-кучевые, Ns - слоисто-дождевые, Cu - кучевые, Cb - кучево-дождевые. Подробнее классификацию облаков см. в Атласе облаков (PDF).
T - Температура воздуха - температура, измеренная на высоте 2 м над землей.
Td - Температура точки росы - температура, при понижении до которой содержащийся в воздухе водяной пар достигнет насыщения.
f - Относительная влажность воздуха - влажноcть воздуха, измеренная на высоте 2 м над землей.
Te - Эффективная температура - температура, которую ощущает одетый по сезону человек в тени. Характеристика душности погоды. При расчете учитывается влияние влажности воздуха и скорости ветра на теплоощущения человека.
Tes - Эффективная температура на солнце - температура, которую ощущает человек, с поправкой на солнечный нагрев. Характеристика знойности погоды. Зависит от высоты солнца над горизонтом, облачности и скорости ветра. Ночью, в пасмурную погоду, а также при ветре 12 м/с и более поправка равна нулю.
P - Атмосферное давление - приведенное к уровню моря атмосферное давление.
Po - Атмосферное давление - измеренное на уровне метеостанции атмосферное давление.
Tmin - Минимальная температура - минимум температуры воздуха на высоте 2 м над землей.
Tmax - Максимальная температура - максимум температуры воздуха на высоте 2 м над землей.
R - Количество осадков - Количество выпавших осадков за период времени, мм. При наведении курсора мыши на число - период времени, за который выпало указанное количество осадков.
R24 - Количество осадков - Количество выпавших осадков за 24 часа, мм.
S - Снежный покров - Высота снежного покрова, см. При наведении курсора мыши на число - состояние снежного покрова и степень покрытия местности в баллах.